W1JAB Weather Reports


Display with metric or nautical units.
time (UTC)temp
F
wind
direction
speed
MPH
gust
MPH
rain 1hr
in
rain 24hr
in
rain mn
in
humidity
%
barometer
mb
20260505011826 65 191 8.0 16.0 0.00 0.00 0.00 46 1009.1
20260505011342 65 193 8.0 16.0 0.00 0.00 0.00 46 1009.0
20260505010817 65 128 7.0 16.0 0.00 0.00 0.00 46 1008.8
20260505010328 65 178 5.0 12.0 0.00 0.00 0.00 46 1008.7
20260505005841 65 223 5.0 12.0 0.00 0.00 0.00 45 1008.7
20260505005317 65 170 6.0 14.0 0.00 0.00 0.00 44 1008.6
20260505004832 65 155 6.0 14.0 0.00 0.00 0.00 43 1008.4
20260505004331 65 191 5.0 12.0 0.00 0.00 0.00 43 1008.3
20260505003915 65 178 4.0 12.0 0.00 0.00 0.00 44 1008.1
20260505003349 66 186 2.0 3.0 0.00 0.00 0.00 41 1007.8
20260505002913 66 186 2.0 3.0 0.00 0.00 0.00 40 1007.6
20260505002330 66 186 1.0 2.0 0.00 0.00 0.00 40 1007.5
20260505001849 67 186 0.0 3.0 0.00 0.00 0.00 40 1007.5
20260505001326 67 186 1.0 3.0 0.00 0.00 0.00 39 1007.3
20260505000910 67 169 2.0 3.0 0.00 0.00 0.00 39 1007.4
20260505000343 67 167 1.0 3.0 0.00 0.00 0.00 38 1007.3
20260504235840 68 166 1.0 7.0 0.00 0.00 0.00 38 1007.3
20260504235400 68 166 2.0 7.0 0.00 0.00 0.00 37 1007.1
20260504234834 69 205 2.0 7.0 0.00 0.00 0.00 37 1007.1
20260504234352 69 221 3.0 7.0 0.00 0.00 0.00 35 1007.1
20260504233847 70 242 1.0 5.0 0.00 0.00 0.00 35 1007.0
20260504233344 70 243 2.0 5.0 0.00 0.00 0.00 35 1006.9
20260504232840 70 269 1.0 5.0 0.00 0.00 0.00 34 1006.8
20260504232404 71 282 2.0 7.0 0.00 0.00 0.00 34 1006.8
20260504231821 71 287 2.0 10.0 0.00 0.00 0.00 33 1006.8
20260504231339 71 307 3.0 10.0 0.00 0.00 0.00 33 1006.7
20260504230816 71 280 4.0 8.0 0.00 0.00 0.00 33 1006.5
20260504230331 71 277 3.0 10.0 0.00 0.00 0.00 33 1006.6
20260504225828 71 261 5.0 10.0 0.00 0.00 0.00 34 1006.4
20260504225325 71 228 2.0 9.0 0.00 0.00 0.00 34 1006.4
20260504224841 71 276 3.0 6.0 0.00 0.00 0.00 33 1006.4
20260504224357 71 244 3.0 8.0 0.00 0.00 0.00 33 1006.3
20260504223830 72 249 4.0 9.0 0.00 0.00 0.00 32 1006.1
20260504223346 72 280 5.0 11.0 0.00 0.00 0.00 32 1006.2
20260504222822 72 279 6.0 11.0 0.00 0.00 0.00 32 1006.2
20260504222340 72 320 3.0 8.0 0.00 0.00 0.00 34 1006.1
20260504221903 72 198 3.0 8.0 0.00 0.00 0.00 33 1006.3
20260504221339 72 271 3.0 8.0 0.00 0.00 0.00 32 1006.4
20260504220834 72 283 4.0 13.0 0.00 0.00 0.00 32 1006.3
20260504220329 72 265 5.0 13.0 0.00 0.00 0.00 32 1006.4
20260504215847 72 275 7.0 10.0 0.00 0.00 0.00 32 1006.3
20260504215323 72 274 5.0 12.0 0.00 0.00 0.00 32 1006.1
20260504214840 72 288 6.0 13.0 0.00 0.00 0.00 31 1006.1
20260504214359 72 243 5.0 13.0 0.00 0.00 0.00 32 1006.2
20260504213923 72 309 8.0 13.0 0.00 0.00 0.00 31 1006.3
20260504213354 73 285 6.0 14.0 0.00 0.00 0.00 31 1006.4
20260504212849 73 292 8.0 12.0 0.00 0.00 0.00 30 1006.3
20260504212347 73 314 5.0 11.0 0.00 0.00 0.00 30 1006.2
20260504211824 73 282 5.0 9.0 0.00 0.00 0.00 31 1006.2
20260504211320 72 278 3.0 13.0 0.00 0.00 0.00 31 1006.2
20260504210838 72 322 8.0 13.0 0.00 0.00 0.00 31 1006.1
20260504210352 72 269 2.0 10.0 0.00 0.00 0.00 32 1006.2
20260504205827 73 182 5.0 16.0 0.00 0.00 0.00 31 1006.2
20260504205413 73 261 8.0 16.0 0.00 0.00 0.00 31 1006.2
20260504204828 73 276 4.0 16.0 0.00 0.00 0.00 31 1006.1
20260504204325 73 260 6.0 16.0 0.00 0.00 0.00 30 1006.2
20260504203821 73 257 6.0 15.0 0.00 0.00 0.00 30 1006.2
20260504203405 73 326 7.0 12.0 0.00 0.00 0.00 30 1006.2
20260504202908 73 254 5.0 12.0 0.00 0.00 0.00 31 1006.2
20260504202406 73 261 6.0 11.0 0.00 0.00 0.00 31 1006.1
20260504201908 72 283 4.0 12.0 0.00 0.00 0.00 32 1006.2
20260504201411 72 127 5.0 11.0 0.00 0.00 0.00 30 1006.1
20260504200828 72 209 6.0 15.0 0.00 0.00 0.00 30 1006.1
20260504200341 72 272 8.0 18.0 0.00 0.00 0.00 30 1006.3
20260504195817 73 285 6.0 18.0 0.00 0.00 0.00 30 1006.2
20260504195334 73 273 7.0 18.0 0.00 0.00 0.00 29 1006.2
20260504194831 73 261 6.0 15.0 0.00 0.00 0.00 31 1006.3
20260504194348 73 130 8.0 16.0 0.00 0.00 0.00 32 1006.2
20260504193911 73 323 5.0 16.0 0.00 0.00 0.00 30 1006.3
20260504193413 73 127 5.0 16.0 0.00 0.00 0.00 30 1006.5
20260504192849 73 328 6.0 13.0 0.00 0.00 0.00 31 1006.3
20260504192325 73 233 8.0 13.0 0.00 0.00 0.00 30 1006.3
20260504191837 73 269 5.0 11.0 0.00 0.00 0.00 29 1006.4
20260504191333 74 249 4.0 14.0 0.00 0.00 0.00 30 1006.3
20260504190831 73 258 7.0 18.0 0.00 0.00 0.00 32 1006.4
20260504190325 72 255 11.0 18.0 0.00 0.00 0.00 29 1006.4
20260504185910 73 313 8.0 17.0 0.00 0.00 0.00 31 1006.4
20260504185345 72 253 11.0 16.0 0.00 0.00 0.00 30 1006.5
20260504184823 71 266 10.0 16.0 0.00 0.00 0.00 30 1006.7
20260504184318 71 251 9.0 17.0 0.00 0.00 0.00 31 1006.6
20260504183835 71 267 5.0 15.0 0.00 0.00 0.00 31 1006.6
20260504183353 72 257 7.0 17.0 0.00 0.00 0.00 30 1006.7
20260504182829 72 259 7.0 20.0 0.00 0.00 0.00 31 1006.6
20260504182346 71 238 6.0 20.0 0.00 0.00 0.00 31 1006.7
20260504181842 71 326 5.0 14.0 0.00 0.00 0.00 32 1006.8
20260504181359 71 274 9.0 16.0 0.00 0.00 0.00 31 1006.7
20260504180835 71 277 10.0 16.0 0.00 0.00 0.00 30 1006.8
20260504180418 71 258 8.0 14.0 0.00 0.00 0.00 30 1006.8
20260504175918 71 304 7.0 15.0 0.00 0.00 0.00 32 1006.6
20260504175332 70 324 8.0 15.0 0.00 0.00 0.00 33 1006.9
20260504174829 70 299 5.0 17.0 0.00 0.00 0.00 31 1007.0
20260504174347 70 294 6.0 23.0 0.00 0.00 0.00 35 1006.9
20260504173824 70 288 10.0 23.0 0.00 0.00 0.00 34 1006.9
20260504173341 70 195 8.0 15.0 0.00 0.00 0.00 31 1006.8
20260504172859 70 205 7.0 20.0 0.00 0.00 0.00 35 1007.1
20260504172355 69 226 10.0 20.0 0.00 0.00 0.00 33 1006.8
20260504171831 69 235 12.0 20.0 0.00 0.00 0.00 33 1007.3
20260504171329 69 242 7.0 20.0 0.00 0.00 0.00 33 1007.3
20260504170847 69 310 10.0 20.0 0.00 0.00 0.00 34 1007.4
20260504170320 69 253 11.0 21.0 0.00 0.00 0.00 33 1007.6
20260504160413 68 201 9.0 17.0 0.00 0.00 0.00 36 1007.6
20260504150843 65 184 7.0 18.0 0.00 0.00 0.00 40 1008.2
20260504150401 65 321 5.0 16.0 0.00 0.00 0.00 39 1008.2
20260504141334 63 241 6.0 11.0 0.00 0.00 0.00 43 1009.0
20260504140851 62 197 5.0 11.0 0.00 0.00 0.00 45 1009.0
20260504140346 62 343 5.0 14.0 0.00 0.00 0.00 43 1009.0
20260504130335 58 292 3.0 12.0 0.00 0.00 0.00 51 1009.6
20260504110416 48 211 1.0 4.0 0.00 0.00 0.00 62 1010.6
20260504100320 45 183 2.0 5.0 0.00 0.00 0.00 64 1010.6
20260504081820 44 247 0.0 0.0 0.00 0.00 0.00 63 1010.5
20260504081336 44 247 0.0 0.0 0.00 0.00 0.00 63 1010.6
20260504080854 44 247 0.0 0.0 0.00 0.00 0.00 63 1010.4
20260504080347 44 247 0.0 0.0 0.00 0.00 0.00 64 1010.6
20260504050352 39 295 0.0 2.0 0.00 0.01 0.00 73 1010.4
20260504045844 39 295 0.0 2.0 0.00 0.01 0.00 72 1010.4
20260504045340 39 295 0.0 0.0 0.00 0.03 0.00 72 1010.3
20260504044857 39 295 0.0 0.0 0.00 0.03 0.00 73 1010.2
20260504044353 39 295 0.0 0.0 0.00 0.03 0.00 75 1010.2
20260504043916 38 295 0.0 0.0 0.00 0.03 0.00 77 1010.3
20260504043348 37 295 0.0 0.0 0.00 0.03 0.00 78 1010.3
20260504042906 37 295 0.0 0.0 0.00 0.03 0.00 78 1010.2
20260504042340 37 295 0.0 0.0 0.00 0.03 0.00 78 1010.3
20260504041837 37 295 0.0 0.0 0.00 0.03 0.00 78 1010.3
20260504041353 37 295 0.0 0.0 0.00 0.03 0.00 78 1010.2
20260504040849 37 295 0.0 0.0 0.00 0.03 0.00 79 1010.2
20260504040321 37 295 0.0 0.0 0.00 0.03 0.00 80 1010.0
20260504035817 36 295 0.0 0.0 0.00 0.03 0.00 79 1010.1
20260504035357 36 295 0.0 0.0 0.00 0.03 0.03 79 1010.1
20260504034834 36 295 0.0 0.0 0.00 0.03 0.03 79 1010.1
20260504034330 36 295 0.0 0.0 0.00 0.03 0.03 78 1010.1
20260504033828 36 295 0.0 0.0 0.00 0.03 0.03 78 1010.0
20260504033345 36 295 0.0 0.0 0.00 0.03 0.03 77 1010.0
20260504032909 37 295 0.0 0.0 0.00 0.03 0.03 77 1010.1
20260504032324 37 295 0.0 0.0 0.00 0.03 0.03 77 1010.0
20260504031820 37 295 0.0 0.0 0.00 0.03 0.03 76 1010.0
20260504031317 37 295 0.0 0.0 0.00 0.03 0.03 75 1010.2
20260504030834 37 295 0.0 0.0 0.00 0.03 0.03 75 1010.0
20260504030348 38 295 0.0 0.0 0.00 0.03 0.03 74 1010.0
20260504025823 38 295 0.0 0.0 0.00 0.03 0.03 74 1010.0
20260504025342 38 295 0.0 0.0 0.00 0.03 0.03 73 1010.1
20260504024900 38 295 0.0 0.0 0.00 0.03 0.03 73 1010.0
20260504024402 39 295 0.0 0.0 0.00 0.03 0.03 72 1010.0
20260504023858 39 295 0.0 0.0 0.00 0.03 0.03 72 1010.1
20260504023356 39 295 0.0 0.0 0.00 0.03 0.03 71 1010.0
20260504022913 40 295 0.0 0.0 0.00 0.03 0.03 70 1010.0
20260504022327 40 295 0.0 0.0 0.00 0.03 0.03 70 1010.1
20260504021910 40 295 0.0 0.0 0.00 0.03 0.03 68 1009.9
20260504021346 40 295 0.0 0.0 0.00 0.03 0.03 68 1009.8
20260504020842 40 295 0.0 0.0 0.00 0.03 0.03 68 1009.9
20260504020335 41 295 0.0 0.0 0.00 0.03 0.03 68 1009.9
20260504015833 41 295 0.0 0.0 0.00 0.03 0.03 67 1009.8
20260504015330 41 295 0.0 0.0 0.00 0.03 0.03 66 1009.8
20260504014827 42 295 0.0 0.0 0.00 0.03 0.03 65 1009.8
20260504014324 42 295 0.0 1.0 0.00 0.03 0.03 64 1009.7
20260504013820 43 295 1.0 1.0 0.00 0.03 0.03 64 1009.8
20260504013337 43 295 1.0 1.0 0.00 0.03 0.03 64 1009.8
20260504012834 44 295 0.0 1.0 0.00 0.03 0.03 61 1009.8
20260504012331 44 295 0.0 2.0 0.00 0.03 0.03 62 1009.8